• In Germany
  • List of Countries
  • For 7 days
  • Water Temperature
  • Satellite Maps
  • Weather Map
  • Weather Widgets
  • user-avatar
    Login

    Hourly Weather Nakhchivan

    Today, 26 May, Saturday

    Time Temperature Precipitation Wind Pressure Humidity
    00:00 +22°C° 0.2 mm 1 mps 685 mmHg 52%
    01:00 +21°C° 0 mm 1 mps 685 mmHg 53%
    02:00 +21°C° 0 mm 1 mps 685 mmHg 53%
    03:00 +20°C° 0 mm 1 mps 684 mmHg 54%
    04:00 +21°C° 0 mm 1 mps 685 mmHg 52%
    05:00 +22°C° 0 mm 1 mps 685 mmHg 50%
    06:00 +22°C° 0 mm 1 mps 685 mmHg 48%
    07:00 +24°C° 0 mm 1 mps 685 mmHg 44%
    08:00 +25°C° 0 mm 1 mps 686 mmHg 41%
    09:00 +26°C° 0 mm 2 mps 686 mmHg 38%
    10:00 +27°C° 0 mm 2 mps 686 mmHg 35%
    11:00 +28°C° 0 mm 2 mps 686 mmHg 33%
    12:00 +29°C° 0 mm 2 mps 687 mmHg 30%
    13:00 +29°C° 0.1 mm 2 mps 686 mmHg 29%
    14:00 +30°C° 0.1 mm 3 mps 686 mmHg 28%
    15:00 +30°C° 0.1 mm 3 mps 686 mmHg 26%
    16:00 +30°C° 0.2 mm 3 mps 686 mmHg 28%
    17:00 +29°C° 0.2 mm 3 mps 686 mmHg 29%
    18:00 +29°C° 0.2 mm 3 mps 686 mmHg 30%
    19:00 +27°C° 0.1 mm 2 mps 687 mmHg 35%
    20:00 +26°C° 0.1 mm 2 mps 687 mmHg 40%
    21:00 +24°C° 0.1 mm 1 mps 687 mmHg 45%
    22:00 +23°C° 0 mm 1 mps 687 mmHg 46%
    23:00 +23°C° 0 mm 1 mps 687 mmHg 47%

    Tomorrow, 27 May, Sunday

    Time Temperature Precipitation Wind Pressure Humidity
    00:00 +22°C° 0 mm 1 mps 688 mmHg 47%
    01:00 +22°C° 0 mm 1 mps 688 mmHg 48%
    02:00 +21°C° 0 mm 1 mps 688 mmHg 48%
    03:00 +21°C° 0 mm 1 mps 688 mmHg 48%
    04:00 +22°C° 0 mm 1 mps 688 mmHg 47%
    05:00 +22°C° 0 mm 1 mps 689 mmHg 46%
    06:00 +23°C° 0 mm 1 mps 689 mmHg 45%
    07:00 +24°C° 0 mm 1 mps 690 mmHg 41%
    08:00 +26°C° 0 mm 1 mps 690 mmHg 36%
    09:00 +27°C° 0 mm 1 mps 690 mmHg 32%
    10:00 +28°C° 0 mm 1 mps 690 mmHg 30%
    11:00 +29°C° 0 mm 2 mps 690 mmHg 28%
    12:00 +30°C° 0 mm 2 mps 691 mmHg 25%
    13:00 +31°C° 0 mm 2 mps 690 mmHg 24%
    14:00 +31°C° 0 mm 3 mps 690 mmHg 24%
    15:00 +31°C° 0 mm 3 mps 690 mmHg 23%
    16:00 +31°C° 0 mm 3 mps 690 mmHg 26%
    17:00 +30°C° 0 mm 4 mps 691 mmHg 29%
    18:00 +29°C° 0 mm 4 mps 691 mmHg 33%
    19:00 +27°C° 0 mm 3 mps 691 mmHg 38%
    20:00 +26°C° 0 mm 3 mps 691 mmHg 44%
    21:00 +24°C° 0 mm 2 mps 691 mmHg 49%
    22:00 +23°C° 0 mm 2 mps 691 mmHg 51%
    23:00 +23°C° 0 mm 2 mps 691 mmHg 54%

    Day after tomorrow, 28 May, Monday

    Time Temperature Precipitation Wind Pressure Humidity
    00:00 +21°C° 0 mm 2 mps 691 mmHg 56%
    01:00 +21°C° 0 mm 2 mps 691 mmHg 57%
    02:00 +21°C° 0 mm 1 mps 691 mmHg 58%
    03:00 +21°C° 0 mm 1 mps 690 mmHg 59%
    04:00 +21°C° 0 mm 1 mps 690 mmHg 57%
    05:00 +22°C° 0 mm 1 mps 690 mmHg 54%
    06:00 +22°C° 0 mm 1 mps 691 mmHg 52%
    07:00 +24°C° 0 mm 1 mps 690 mmHg 47%
    08:00 +25°C° 0 mm 1 mps 690 mmHg 42%
    09:00 +26°C° 0 mm 1 mps 690 mmHg 38%
    10:00 +27°C° 0 mm 1 mps 690 mmHg 34%
    11:00 +29°C° 0 mm 1 mps 690 mmHg 31%
    12:00 +30°C° 0 mm 2 mps 689 mmHg 28%
    13:00 +31°C° 0.1 mm 2 mps 689 mmHg 27%
    14:00 +31°C° 0.1 mm 2 mps 689 mmHg 25%
    15:00 +32°C° 0.1 mm 2 mps 688 mmHg 24%
    16:00 +31°C° 0.4 mm 1 mps 688 mmHg 26%
    17:00 +31°C° 0.4 mm 1 mps 688 mmHg 28%
    18:00 +30°C° 0.4 mm 1 mps 687 mmHg 30%
    19:00 +29°C° 0.3 mm 1 mps 688 mmHg 35%
    20:00 +27°C° 0.3 mm 1 mps 688 mmHg 40%
    21:00 +26°C° 0.3 mm 1 mps 688 mmHg 45%
    22:00 +25°C° 0.3 mm 1 mps 688 mmHg 46%
    23:00 +25°C° 0.3 mm 2 mps 688 mmHg 48%

    29 May, Tuesday

    Time Temperature Precipitation Wind Pressure Humidity
    00:00 +24°C° 0.3 mm 2 mps 688 mmHg 49%
    01:00 +24°C° 0.1 mm 2 mps 688 mmHg 51%
    02:00 +23°C° 0.1 mm 2 mps 688 mmHg 52%
    03:00 +23°C° 0.1 mm 1 mps 688 mmHg 54%
    04:00 +23°C° 0 mm 1 mps 688 mmHg 53%
    05:00 +23°C° 0 mm 1 mps 688 mmHg 51%
    06:00 +24°C° 0 mm 1 mps 688 mmHg 50%
    07:00 +25°C° 0 mm 2 mps 688 mmHg 46%
    08:00 +26°C° 0 mm 2 mps 688 mmHg 41%
    09:00 +28°C° 0 mm 2 mps 688 mmHg 36%
    10:00 +28°C° 0 mm 2 mps 688 mmHg 35%
    11:00 +29°C° 0 mm 3 mps 688 mmHg 34%
    12:00 +30°C° 0 mm 4 mps 688 mmHg 33%
    13:00 +30°C° 0.2 mm 4 mps 687 mmHg 34%
    14:00 +30°C° 0.2 mm 5 mps 687 mmHg 34%
    15:00 +30°C° 0.2 mm 5 mps 687 mmHg 35%
    16:00 +28°C° 0.8 mm 5 mps 687 mmHg 41%
    17:00 +27°C° 0.8 mm 4 mps 687 mmHg 46%
    18:00 +26°C° 0.8 mm 4 mps 687 mmHg 52%
    19:00 +25°C° 0.9 mm 3 mps 687 mmHg 56%
    20:00 +24°C° 0.9 mm 3 mps 687 mmHg 61%
    21:00 +23°C° 0.9 mm 2 mps 688 mmHg 65%
    22:00 +21°C° 0.6 mm 2 mps 688 mmHg 66%
    23:00 +21°C° 0.6 mm 2 mps 688 mmHg 68%

    30 May, Wednesday

    Time Temperature Precipitation Wind Pressure Humidity
    00:00 +20°C° 0.6 mm 2 mps 688 mmHg 70%
    01:00 +21°C° 0.3 mm 1 mps 687 mmHg 71%
    02:00 +21°C° 0.3 mm 1 mps 687 mmHg 71%
    03:00 +20°C° 0.3 mm 1 mps 687 mmHg 72%
    04:00 +20°C° 0.1 mm 1 mps 687 mmHg 70%
    05:00 +20°C° 0.1 mm 1 mps 688 mmHg 69%
    06:00 +20°C° 0.1 mm 1 mps 688 mmHg 67%
    07:00 +21°C° 0 mm 2 mps 688 mmHg 61%
    08:00 +23°C° 0 mm 2 mps 688 mmHg 54%
    09:00 +25°C° 0 mm 2 mps 688 mmHg 48%
    10:00 +26°C° 0 mm 3 mps 688 mmHg 44%
    11:00 +28°C° 0 mm 3 mps 688 mmHg 40%
    12:00 +29°C° 0 mm 4 mps 688 mmHg 36%
    13:00 +30°C° 0 mm 4 mps 688 mmHg 35%
    14:00 +30°C° 0 mm 4 mps 688 mmHg 33%
    15:00 +32°C° 0 mm 4 mps 688 mmHg 32%
    16:00 +29°C° 0.6 mm 4 mps 687 mmHg 39%
    17:00 +28°C° 0.6 mm 4 mps 687 mmHg 46%
    18:00 +26°C° 0.6 mm 4 mps 687 mmHg 53%
    19:00 +25°C° 0 mm 4 mps 687 mmHg 55%
    20:00 +25°C° 0 mm 3 mps 687 mmHg 57%
    21:00 +24°C° 0 mm 3 mps 687 mmHg 59%
    22:00 +24°C° 0.1 mm 3 mps 686 mmHg 60%
    23:00 +23°C° 0.1 mm 2 mps 686 mmHg 61%

    31 May, Thursday

    Time Temperature Precipitation Wind Pressure Humidity
    00:00 +23°C° 0.1 mm 2 mps 685 mmHg 61%
    01:00 +21°C° 0.1 mm 2 mps 685 mmHg 62%
    02:00 +21°C° 0.1 mm 2 mps 685 mmHg 62%
    03:00 +21°C° 0.1 mm 2 mps 684 mmHg 63%
    04:00 +21°C° 0 mm 2 mps 684 mmHg 61%
    05:00 +23°C° 0 mm 1 mps 684 mmHg 59%
    06:00 +23°C° 0 mm 1 mps 684 mmHg 56%
    07:00 +25°C° 0 mm 2 mps 684 mmHg 52%
    08:00 +26°C° 0 mm 2 mps 685 mmHg 47%
    09:00 +28°C° 0 mm 3 mps 685 mmHg 42%
    10:00 +29°C° 0 mm 3 mps 684 mmHg 39%
    11:00 +30°C° 0 mm 3 mps 684 mmHg 35%
    12:00 +33°C° 0 mm 3 mps 684 mmHg 31%
    13:00 +33°C° 0 mm 3 mps 684 mmHg 30%
    14:00 +33°C° 0 mm 3 mps 683 mmHg 28%
    15:00 +34°C° 0 mm 4 mps 683 mmHg 27%
    16:00 +33°C° 0.1 mm 3 mps 683 mmHg 28%
    17:00 +33°C° 0.1 mm 3 mps 683 mmHg 29%
    18:00 +31°C° 0.1 mm 3 mps 683 mmHg 30%
    19:00 +29°C° 0.1 mm 3 mps 683 mmHg 34%
    20:00 +28°C° 0.1 mm 2 mps 684 mmHg 37%
    21:00 +26°C° 0.1 mm 2 mps 684 mmHg 40%
    22:00 +25°C° 0 mm 2 mps 684 mmHg 42%
    23:00 +24°C° 0 mm 2 mps 684 mmHg 44%
    Show more